Location: Knowlton
(51.2333°N, 1.2667°E)
Time: 09:56:03
(UTC+00:00)

Cosmos 1805 Rocket - Pass Details

Date: 18 April 2021
Orbit: 605 x 631 km, 82.5° (Epoch: 16 May)

Event Time Altitude Azimuth Distance (km) Brightness Sun altitude
Rises 22:04:57 0° 355° (N) 2,891 8.1 -23.3°
Reaches altitude 10° 22:07:20 10° 3° (N) 1,977 6.9 -23.5°
Enters shadow 22:11:12 38° 64° (ENE) 941 4.4 -23.7°
